owner,sensor,date,latitude,longitude,air_pressure(mBar),qcFlag 
WAVCIS,ioos:station:WAVCIS:CSI16:1,2012-01-01T00:00:00Z,29.4012,-89.0355,1015.49,11111222 
WAVCIS,ioos:station:WAVCIS:CSI16:1,2012-01-01T01:00:00Z,29.4012,-89.0355,1015.67,11111222 
WAVCIS,ioos:station:WAVCIS:CSI16:1,2012-01-01T02:00:00Z,29.4012,-89.0355,1015.84,11111222 
WAVCIS,ioos:station:WAVCIS:CSI16:1,2012-01-01T03:00:00Z,29.4012,-89.0355,1015.95,11111222 
WAVCIS,ioos:station:WAVCIS:CSI16:1,2012-01-01T04:00:00Z,29.4012,-89.0355,1016.07,11111222 
WAVCIS,ioos:station:WAVCIS:CSI16:1,2012-01-01T05:00:00Z,29.4012,-89.0355,1016.55,11111222 
WAVCIS,ioos:station:WAVCIS:CSI16:1,2012-01-01T06:00:00Z,29.4012,-89.0355,1016.62,11111222 
WAVCIS,ioos:station:WAVCIS:CSI16:1,2012-01-01T07:00:00Z,29.4012,-89.0355,1016.42,11111222 
WAVCIS,ioos:station:WAVCIS:CSI16:1,2012-01-01T08:00:00Z,29.4012,-89.0355,1016.33,11111222 
WAVCIS,ioos:station:WAVCIS:CSI16:1,2012-01-01T09:00:00Z,29.4012,-89.0355,1016.41,11111222 
WAVCIS,ioos:station:WAVCIS:CSI16:1,2012-01-01T10:00:00Z,29.4012,-89.0355,1016.39,11111222 
WAVCIS,ioos:station:WAVCIS:CSI16:1,2012-01-01T11:00:00Z,29.4012,-89.0355,1016.87,11111222 
WAVCIS,ioos:station:WAVCIS:CSI16:1,2012-01-01T12:00:00Z,29.4012,-89.0355,1017.69,11111222 
WAVCIS,ioos:station:WAVCIS:CSI16:1,2012-01-01T13:00:00Z,29.4012,-89.0355,1017.94,11111222 
WAVCIS,ioos:station:WAVCIS:CSI16:1,2012-01-01T14:00:00Z,29.4012,-89.0355,1018.69,11111222 
WAVCIS,ioos:station:WAVCIS:CSI16:1,2012-01-01T15:00:00Z,29.4012,-89.0355,1019.66,11111222 
WAVCIS,ioos:station:WAVCIS:CSI16:1,2012-01-01T16:00:00Z,29.4012,-89.0355,1019.77,11111222 
WAVCIS,ioos:station:WAVCIS:CSI16:1,2012-01-01T17:00:00Z,29.4012,-89.0355,1019.22,11111222 
WAVCIS,ioos:station:WAVCIS:CSI16:1,2012-01-01T18:00:00Z,29.4012,-89.0355,1018.18,11111222 
WAVCIS,ioos:station:WAVCIS:CSI16:1,2012-01-01T19:00:00Z,29.4012,-89.0355,1017.45,11111222 
WAVCIS,ioos:station:WAVCIS:CSI16:1,2012-01-01T20:00:00Z,29.4012,-89.0355,1017.25,11111222 
WAVCIS,ioos:station:WAVCIS:CSI16:1,2012-01-01T21:00:00Z,29.4012,-89.0355,1017.37,11111222 
WAVCIS,ioos:station:WAVCIS:CSI16:1,2012-01-01T22:00:00Z,29.4012,-89.0355,1017.35,11111222 
WAVCIS,ioos:station:WAVCIS:CSI16:1,2012-01-01T23:00:00Z,29.4012,-89.0355,1017.74,11111222 
WAVCIS,ioos:station:WAVCIS:CSI16:1,2012-01-02T00:00:00Z,29.4012,-89.0355,1018.83,11111222 
WAVCIS,ioos:station:WAVCIS:CSI16:1,2012-01-02T01:00:00Z,29.4012,-89.0355,1019.69,11111222 
WAVCIS,ioos:station:WAVCIS:CSI16:1,2012-01-02T02:00:00Z,29.4012,-89.0355,1020.43,11111222 
WAVCIS,ioos:station:WAVCIS:CSI16:1,2012-01-02T03:00:00Z,29.4012,-89.0355,1020.72,11111222 
WAVCIS,ioos:station:WAVCIS:CSI16:1,2012-01-02T04:00:00Z,29.4012,-89.0355,1021.31,11111222 
WAVCIS,ioos:station:WAVCIS:CSI16:1,2012-01-02T05:00:00Z,29.4012,-89.0355,1021.02,11111222 
WAVCIS,ioos:station:WAVCIS:CSI16:1,2012-01-02T06:00:00Z,29.4012,-89.0355,1020.67,11111222 
WAVCIS,ioos:station:WAVCIS:CSI16:1,2012-01-02T07:00:00Z,29.4012,-89.0355,1020.8,11111222 
WAVCIS,ioos:station:WAVCIS:CSI16:1,2012-01-02T08:00:00Z,29.4012,-89.0355,1020.74,11111222 
WAVCIS,ioos:station:WAVCIS:CSI16:1,2012-01-02T09:00:00Z,29.4012,-89.0355,1020.8,11111222 
WAVCIS,ioos:station:WAVCIS:CSI16:1,2012-01-02T10:00:00Z,29.4012,-89.0355,1021.08,11111222 
WAVCIS,ioos:station:WAVCIS:CSI16:1,2012-01-02T11:00:00Z,29.4012,-89.0355,1021.42,11111222 
WAVCIS,ioos:station:WAVCIS:CSI16:1,2012-01-02T12:00:00Z,29.4012,-89.0355,1022.11,11111222 
WAVCIS,ioos:station:WAVCIS:CSI16:1,2012-01-02T13:00:00Z,29.4012,-89.0355,1022.89,11111222 
WAVCIS,ioos:station:WAVCIS:CSI16:1,2012-01-02T14:00:00Z,29.4012,-89.0355,1024.45,11111222 
WAVCIS,ioos:station:WAVCIS:CSI16:1,2012-01-02T15:00:00Z,29.4012,-89.0355,1025.83,11111222 
WAVCIS,ioos:station:WAVCIS:CSI16:1,2012-01-02T16:00:00Z,29.4012,-89.0355,1026.48,11111222 
WAVCIS,ioos:station:WAVCIS:CSI16:1,2012-01-02T17:00:00Z,29.4012,-89.0355,1026.19,11111222 
WAVCIS,ioos:station:WAVCIS:CSI16:1,2012-01-02T18:00:00Z,29.4012,-89.0355,1025.25,11111222 
WAVCIS,ioos:station:WAVCIS:CSI16:1,2012-01-02T19:00:00Z,29.4012,-89.0355,1024.09,11111222 
WAVCIS,ioos:station:WAVCIS:CSI16:1,2012-01-02T20:00:00Z,29.4012,-89.0355,1023.41,11111222 
WAVCIS,ioos:station:WAVCIS:CSI16:1,2012-01-02T21:00:00Z,29.4012,-89.0355,1023.0,11111222 
WAVCIS,ioos:station:WAVCIS:CSI16:1,2012-01-02T22:00:00Z,29.4012,-89.0355,1022.99,11111222 
WAVCIS,ioos:station:WAVCIS:CSI16:1,2012-01-02T23:00:00Z,29.4012,-89.0355,1022.74,11111222 
WAVCIS,ioos:station:WAVCIS:CSI16:1,2012-01-03T00:00:00Z,29.4012,-89.0355,1022.83,11111222 
WAVCIS,ioos:station:WAVCIS:CSI16:1,2012-01-03T01:00:00Z,29.4012,-89.0355,1023.27,11111222 
WAVCIS,ioos:station:WAVCIS:CSI16:1,2012-01-03T02:00:00Z,29.4012,-89.0355,1023.72,11111222 
WAVCIS,ioos:station:WAVCIS:CSI16:1,2012-01-03T03:00:00Z,29.4012,-89.0355,1024.13,11111222 
WAVCIS,ioos:station:WAVCIS:CSI16:1,2012-01-03T04:00:00Z,29.4012,-89.0355,1025.0,11111222 
WAVCIS,ioos:station:WAVCIS:CSI16:1,2012-01-03T05:00:00Z,29.4012,-89.0355,1024.89,11111222 
WAVCIS,ioos:station:WAVCIS:CSI16:1,2012-01-03T06:00:00Z,29.4012,-89.0355,1024.8,11111222 
WAVCIS,ioos:station:WAVCIS:CSI16:1,2012-01-03T07:00:00Z,29.4012,-89.0355,1024.68,11111222 
WAVCIS,ioos:station:WAVCIS:CSI16:1,2012-01-03T08:00:00Z,29.4012,-89.0355,1024.55,11111222 
WAVCIS,ioos:station:WAVCIS:CSI16:1,2012-01-03T09:00:00Z,29.4012,-89.0355,1024.83,11111222 
WAVCIS,ioos:station:WAVCIS:CSI16:1,2012-01-03T10:00:00Z,29.4012,-89.0355,1024.77,11111222 
WAVCIS,ioos:station:WAVCIS:CSI16:1,2012-01-03T11:00:00Z,29.4012,-89.0355,1025.09,11111222 
WAVCIS,ioos:station:WAVCIS:CSI16:1,2012-01-03T12:00:00Z,29.4012,-89.0355,1025.44,11111222 
WAVCIS,ioos:station:WAVCIS:CSI16:1,2012-01-03T13:00:00Z,29.4012,-89.0355,1025.75,11111222 
WAVCIS,ioos:station:WAVCIS:CSI16:1,2012-01-03T14:00:00Z,29.4012,-89.0355,1026.17,11111222 
WAVCIS,ioos:station:WAVCIS:CSI16:1,2012-01-03T15:00:00Z,29.4012,-89.0355,1027.13,11111222 
WAVCIS,ioos:station:WAVCIS:CSI16:1,2012-01-03T16:00:00Z,29.4012,-89.0355,1027.58,11111222 
WAVCIS,ioos:station:WAVCIS:CSI16:1,2012-01-03T17:00:00Z,29.4012,-89.0355,1027.12,11111222 
WAVCIS,ioos:station:WAVCIS:CSI16:1,2012-01-03T18:00:00Z,29.4012,-89.0355,1025.75,11111222 
WAVCIS,ioos:station:WAVCIS:CSI16:1,2012-01-03T19:00:00Z,29.4012,-89.0355,1024.87,11111222 
WAVCIS,ioos:station:WAVCIS:CSI16:1,2012-01-03T20:00:00Z,29.4012,-89.0355,1024.52,11111222 
WAVCIS,ioos:station:WAVCIS:CSI16:1,2012-01-03T21:00:00Z,29.4012,-89.0355,1024.42,11111222 
WAVCIS,ioos:station:WAVCIS:CSI16:1,2012-01-03T22:00:00Z,29.4012,-89.0355,1023.99,11111222 
WAVCIS,ioos:station:WAVCIS:CSI16:1,2012-01-03T23:00:00Z,29.4012,-89.0355,1023.7,11111222 
WAVCIS,ioos:station:WAVCIS:CSI16:1,2012-01-04T00:00:00Z,29.4012,-89.0355,1023.37,11111222 
WAVCIS,ioos:station:WAVCIS:CSI16:1,2012-01-04T01:00:00Z,29.4012,-89.0355,1023.94,11111222 
WAVCIS,ioos:station:WAVCIS:CSI16:1,2012-01-04T02:00:00Z,29.4012,-89.0355,1023.89,11111222 
WAVCIS,ioos:station:WAVCIS:CSI16:1,2012-01-04T03:00:00Z,29.4012,-89.0355,1023.71,11111222 
WAVCIS,ioos:station:WAVCIS:CSI16:1,2012-01-04T04:00:00Z,29.4012,-89.0355,1023.74,11111222 
WAVCIS,ioos:station:WAVCIS:CSI16:1,2012-01-04T05:00:00Z,29.4012,-89.0355,1023.47,11111222 
WAVCIS,ioos:station:WAVCIS:CSI16:1,2012-01-04T06:00:00Z,29.4012,-89.0355,1023.07,11111222 
WAVCIS,ioos:station:WAVCIS:CSI16:1,2012-01-04T07:00:00Z,29.4012,-89.0355,1022.43,11111222 
WAVCIS,ioos:station:WAVCIS:CSI16:1,2012-01-04T08:00:00Z,29.4012,-89.0355,1022.3,11111222 
WAVCIS,ioos:station:WAVCIS:CSI16:1,2012-01-04T09:00:00Z,29.4012,-89.0355,1021.61,11111222 
WAVCIS,ioos:station:WAVCIS:CSI16:1,2012-01-04T10:00:00Z,29.4012,-89.0355,1021.82,11111222 
WAVCIS,ioos:station:WAVCIS:CSI16:1,2012-01-04T11:00:00Z,29.4012,-89.0355,1021.97,11111222 
WAVCIS,ioos:station:WAVCIS:CSI16:1,2012-01-04T12:00:00Z,29.4012,-89.0355,1022.39,11111222 
WAVCIS,ioos:station:WAVCIS:CSI16:1,2012-01-04T13:00:00Z,29.4012,-89.0355,1022.56,11111222 
WAVCIS,ioos:station:WAVCIS:CSI16:1,2012-01-04T14:00:00Z,29.4012,-89.0355,1023.09,11111222 
WAVCIS,ioos:station:WAVCIS:CSI16:1,2012-01-04T15:00:00Z,29.4012,-89.0355,1024.9,11111222 
WAVCIS,ioos:station:WAVCIS:CSI16:1,2012-01-04T16:00:00Z,29.4012,-89.0355,1026.39,11111222 
WAVCIS,ioos:station:WAVCIS:CSI16:1,2012-01-04T17:00:00Z,29.4012,-89.0355,1026.27,11111222 
WAVCIS,ioos:station:WAVCIS:CSI16:1,2012-01-04T18:00:00Z,29.4012,-89.0355,1025.44,11111222 
WAVCIS,ioos:station:WAVCIS:CSI16:1,2012-01-04T19:00:00Z,29.4012,-89.0355,1023.68,11111222 
WAVCIS,ioos:station:WAVCIS:CSI16:1,2012-01-04T20:00:00Z,29.4012,-89.0355,1022.62,11111222 
WAVCIS,ioos:station:WAVCIS:CSI16:1,2012-01-04T21:00:00Z,29.4012,-89.0355,1021.89,11111222 
WAVCIS,ioos:station:WAVCIS:CSI16:1,2012-01-04T22:00:00Z,29.4012,-89.0355,1020.92,11111222 
WAVCIS,ioos:station:WAVCIS:CSI16:1,2012-01-04T23:00:00Z,29.4012,-89.0355,1020.53,11111222 
WAVCIS,ioos:station:WAVCIS:CSI16:1,2012-01-05T00:00:00Z,29.4012,-89.0355,1020.59,11111222 
WAVCIS,ioos:station:WAVCIS:CSI16:1,2012-01-05T01:00:00Z,29.4012,-89.0355,1020.76,11111222 
WAVCIS,ioos:station:WAVCIS:CSI16:1,2012-01-05T02:00:00Z,29.4012,-89.0355,1020.78,11111222 
WAVCIS,ioos:station:WAVCIS:CSI16:1,2012-01-05T03:00:00Z,29.4012,-89.0355,1020.84,11111222 
WAVCIS,ioos:station:WAVCIS:CSI16:1,2012-01-05T04:00:00Z,29.4012,-89.0355,1020.95,11111222 
WAVCIS,ioos:station:WAVCIS:CSI16:1,2012-01-05T05:00:00Z,29.4012,-89.0355,1020.51,11111222 
WAVCIS,ioos:station:WAVCIS:CSI16:1,2012-01-05T06:00:00Z,29.4012,-89.0355,1020.39,11111222 
WAVCIS,ioos:station:WAVCIS:CSI16:1,2012-01-05T07:00:00Z,29.4012,-89.0355,1020.02,11111222 
WAVCIS,ioos:station:WAVCIS:CSI16:1,2012-01-05T08:00:00Z,29.4012,-89.0355,1019.88,11111222 
WAVCIS,ioos:station:WAVCIS:CSI16:1,2012-01-05T09:00:00Z,29.4012,-89.0355,1019.67,11111222 
WAVCIS,ioos:station:WAVCIS:CSI16:1,2012-01-05T10:00:00Z,29.4012,-89.0355,1019.26,11111222 
WAVCIS,ioos:station:WAVCIS:CSI16:1,2012-01-05T11:00:00Z,29.4012,-89.0355,1019.33,11111222 
WAVCIS,ioos:station:WAVCIS:CSI16:1,2012-01-05T12:00:00Z,29.4012,-89.0355,1019.42,11111222 
WAVCIS,ioos:station:WAVCIS:CSI16:1,2012-01-05T13:00:00Z,29.4012,-89.0355,1019.5,11111222 
WAVCIS,ioos:station:WAVCIS:CSI16:1,2012-01-05T14:00:00Z,29.4012,-89.0355,1019.95,11111222 
WAVCIS,ioos:station:WAVCIS:CSI16:1,2012-01-05T15:00:00Z,29.4012,-89.0355,1020.43,11111222 
WAVCIS,ioos:station:WAVCIS:CSI16:1,2012-01-05T16:00:00Z,29.4012,-89.0355,1020.76,11111222 
WAVCIS,ioos:station:WAVCIS:CSI16:1,2012-01-05T17:00:00Z,29.4012,-89.0355,1020.44,11111222 
WAVCIS,ioos:station:WAVCIS:CSI16:1,2012-01-05T18:00:00Z,29.4012,-89.0355,1019.64,11111222 
WAVCIS,ioos:station:WAVCIS:CSI16:1,2012-01-05T19:00:00Z,29.4012,-89.0355,1018.75,11111222 
WAVCIS,ioos:station:WAVCIS:CSI16:1,2012-01-05T20:00:00Z,29.4012,-89.0355,1018.63,11111222 
WAVCIS,ioos:station:WAVCIS:CSI16:1,2012-01-05T21:00:00Z,29.4012,-89.0355,1018.69,11111222 
WAVCIS,ioos:station:WAVCIS:CSI16:1,2012-01-05T22:00:00Z,29.4012,-89.0355,1018.22,11111222 
WAVCIS,ioos:station:WAVCIS:CSI16:1,2012-01-05T23:00:00Z,29.4012,-89.0355,1017.58,11111222 
WAVCIS,ioos:station:WAVCIS:CSI16:1,2012-01-06T00:00:00Z,29.4012,-89.0355,1017.77,11111222 
WAVCIS,ioos:station:WAVCIS:CSI16:1,2012-01-06T01:00:00Z,29.4012,-89.0355,1017.65,11111222 
WAVCIS,ioos:station:WAVCIS:CSI16:1,2012-01-06T02:00:00Z,29.4012,-89.0355,1017.69,11111222 
WAVCIS,ioos:station:WAVCIS:CSI16:1,2012-01-06T03:00:00Z,29.4012,-89.0355,1017.91,11111222 
WAVCIS,ioos:station:WAVCIS:CSI16:1,2012-01-06T04:00:00Z,29.4012,-89.0355,1017.45,11111222 
WAVCIS,ioos:station:WAVCIS:CSI16:1,2012-01-06T05:00:00Z,29.4012,-89.0355,1016.73,11111222 
WAVCIS,ioos:station:WAVCIS:CSI16:1,2012-01-06T06:00:00Z,29.4012,-89.0355,1016.18,11111222 
WAVCIS,ioos:station:WAVCIS:CSI16:1,2012-01-06T07:00:00Z,29.4012,-89.0355,1015.69,11111222 
WAVCIS,ioos:station:WAVCIS:CSI16:1,2012-01-06T08:00:00Z,29.4012,-89.0355,1015.6,11111222 
WAVCIS,ioos:station:WAVCIS:CSI16:1,2012-01-06T09:00:00Z,29.4012,-89.0355,1015.11,11111222 
WAVCIS,ioos:station:WAVCIS:CSI16:1,2012-01-06T10:00:00Z,29.4012,-89.0355,1014.74,11111222 
WAVCIS,ioos:station:WAVCIS:CSI16:1,2012-01-06T11:00:00Z,29.4012,-89.0355,1014.77,11111222 
WAVCIS,ioos:station:WAVCIS:CSI16:1,2012-01-06T12:00:00Z,29.4012,-89.0355,1015.08,11111222 
WAVCIS,ioos:station:WAVCIS:CSI16:1,2012-01-06T13:00:00Z,29.4012,-89.0355,1015.24,11111222 
WAVCIS,ioos:station:WAVCIS:CSI16:1,2012-01-06T14:00:00Z,29.4012,-89.0355,1015.79,11111222 
WAVCIS,ioos:station:WAVCIS:CSI16:1,2012-01-06T15:00:00Z,29.4012,-89.0355,1016.45,11111222 
WAVCIS,ioos:station:WAVCIS:CSI16:1,2012-01-06T16:00:00Z,29.4012,-89.0355,1016.96,11111222 
WAVCIS,ioos:station:WAVCIS:CSI16:1,2012-01-06T17:00:00Z,29.4012,-89.0355,1016.67,11111222 
WAVCIS,ioos:station:WAVCIS:CSI16:1,2012-01-06T18:00:00Z,29.4012,-89.0355,1016.26,11111222 
WAVCIS,ioos:station:WAVCIS:CSI16:1,2012-01-06T19:00:00Z,29.4012,-89.0355,1015.76,11111222 
WAVCIS,ioos:station:WAVCIS:CSI16:1,2012-01-06T20:00:00Z,29.4012,-89.0355,1015.13,11111222 
WAVCIS,ioos:station:WAVCIS:CSI16:1,2012-01-06T21:00:00Z,29.4012,-89.0355,1015.07,11111222 
WAVCIS,ioos:station:WAVCIS:CSI16:1,2012-01-06T22:00:00Z,29.4012,-89.0355,1014.96,11111222 
WAVCIS,ioos:station:WAVCIS:CSI16:1,2012-01-06T23:00:00Z,29.4012,-89.0355,1014.87,11111222 
WAVCIS,ioos:station:WAVCIS:CSI16:1,2012-01-07T00:00:00Z,29.4012,-89.0355,1014.83,11111222 
WAVCIS,ioos:station:WAVCIS:CSI16:1,2012-01-07T01:00:00Z,29.4012,-89.0355,1014.75,11111222 
WAVCIS,ioos:station:WAVCIS:CSI16:1,2012-01-07T02:00:00Z,29.4012,-89.0355,1014.88,11111222 
WAVCIS,ioos:station:WAVCIS:CSI16:1,2012-01-07T03:00:00Z,29.4012,-89.0355,1014.7,11111222 
WAVCIS,ioos:station:WAVCIS:CSI16:1,2012-01-07T04:00:00Z,29.4012,-89.0355,1014.56,11111222 
WAVCIS,ioos:station:WAVCIS:CSI16:1,2012-01-07T05:00:00Z,29.4012,-89.0355,1014.27,11111222 
WAVCIS,ioos:station:WAVCIS:CSI16:1,2012-01-07T06:00:00Z,29.4012,-89.0355,1014.02,11111222 
WAVCIS,ioos:station:WAVCIS:CSI16:1,2012-01-07T07:00:00Z,29.4012,-89.0355,1013.47,11111222 
WAVCIS,ioos:station:WAVCIS:CSI16:1,2012-01-07T08:00:00Z,29.4012,-89.0355,1013.52,11111222 
WAVCIS,ioos:station:WAVCIS:CSI16:1,2012-01-07T09:00:00Z,29.4012,-89.0355,1013.29,11111222 
WAVCIS,ioos:station:WAVCIS:CSI16:1,2012-01-07T10:00:00Z,29.4012,-89.0355,1013.35,11111222 
WAVCIS,ioos:station:WAVCIS:CSI16:1,2012-01-07T11:00:00Z,29.4012,-89.0355,1013.34,11111222 
WAVCIS,ioos:station:WAVCIS:CSI16:1,2012-01-07T12:00:00Z,29.4012,-89.0355,1013.71,11111222 
WAVCIS,ioos:station:WAVCIS:CSI16:1,2012-01-07T13:00:00Z,29.4012,-89.0355,1014.08,11111222 
WAVCIS,ioos:station:WAVCIS:CSI16:1,2012-01-07T14:00:00Z,29.4012,-89.0355,1014.54,11111222 
WAVCIS,ioos:station:WAVCIS:CSI16:1,2012-01-07T15:00:00Z,29.4012,-89.0355,1015.49,11111222 
WAVCIS,ioos:station:WAVCIS:CSI16:1,2012-01-07T16:00:00Z,29.4012,-89.0355,1016.26,11111222 
WAVCIS,ioos:station:WAVCIS:CSI16:1,2012-01-07T17:00:00Z,29.4012,-89.0355,1015.62,11111222 
WAVCIS,ioos:station:WAVCIS:CSI16:1,2012-01-07T18:00:00Z,29.4012,-89.0355,1014.9,11111222 
WAVCIS,ioos:station:WAVCIS:CSI16:1,2012-01-07T19:00:00Z,29.4012,-89.0355,1014.51,11111222 
WAVCIS,ioos:station:WAVCIS:CSI16:1,2012-01-07T20:00:00Z,29.4012,-89.0355,1014.27,11111222 
WAVCIS,ioos:station:WAVCIS:CSI16:1,2012-01-07T21:00:00Z,29.4012,-89.0355,1014.18,11111222 
WAVCIS,ioos:station:WAVCIS:CSI16:1,2012-01-07T22:00:00Z,29.4012,-89.0355,1014.21,11111222 
WAVCIS,ioos:station:WAVCIS:CSI16:1,2012-01-07T23:00:00Z,29.4012,-89.0355,1014.19,11111222 
WAVCIS,ioos:station:WAVCIS:CSI16:1,2012-01-08T00:00:00Z,29.4012,-89.0355,1014.42,11111222 
WAVCIS,ioos:station:WAVCIS:CSI16:1,2012-01-08T01:00:00Z,29.4012,-89.0355,1014.36,11111222 
WAVCIS,ioos:station:WAVCIS:CSI16:1,2012-01-08T02:00:00Z,29.4012,-89.0355,1014.42,11111222 
WAVCIS,ioos:station:WAVCIS:CSI16:1,2012-01-08T03:00:00Z,29.4012,-89.0355,1014.86,11111222 
WAVCIS,ioos:station:WAVCIS:CSI16:1,2012-01-08T04:00:00Z,29.4012,-89.0355,1015.15,11111222 
WAVCIS,ioos:station:WAVCIS:CSI16:1,2012-01-08T05:00:00Z,29.4012,-89.0355,1015.01,11111222 
WAVCIS,ioos:station:WAVCIS:CSI16:1,2012-01-08T06:00:00Z,29.4012,-89.0355,1014.75,11111222 
WAVCIS,ioos:station:WAVCIS:CSI16:1,2012-01-08T07:00:00Z,29.4012,-89.0355,1014.55,11111222 
WAVCIS,ioos:station:WAVCIS:CSI16:1,2012-01-08T08:00:00Z,29.4012,-89.0355,1014.23,11111222 
WAVCIS,ioos:station:WAVCIS:CSI16:1,2012-01-08T09:00:00Z,29.4012,-89.0355,1013.96,11111222 
WAVCIS,ioos:station:WAVCIS:CSI16:1,2012-01-08T10:00:00Z,29.4012,-89.0355,1014.11,11111222 
WAVCIS,ioos:station:WAVCIS:CSI16:1,2012-01-08T11:00:00Z,29.4012,-89.0355,1014.19,11111222 
WAVCIS,ioos:station:WAVCIS:CSI16:1,2012-01-08T12:00:00Z,29.4012,-89.0355,1015.0,11111222 
WAVCIS,ioos:station:WAVCIS:CSI16:1,2012-01-08T13:00:00Z,29.4012,-89.0355,1015.47,11111222 
WAVCIS,ioos:station:WAVCIS:CSI16:1,2012-01-08T14:00:00Z,29.4012,-89.0355,1015.92,11111222 
WAVCIS,ioos:station:WAVCIS:CSI16:1,2012-01-08T15:00:00Z,29.4012,-89.0355,1016.72,11111222 
WAVCIS,ioos:station:WAVCIS:CSI16:1,2012-01-08T16:00:00Z,29.4012,-89.0355,1017.72,11111222 
WAVCIS,ioos:station:WAVCIS:CSI16:1,2012-01-08T17:00:00Z,29.4012,-89.0355,1017.69,11111222 
WAVCIS,ioos:station:WAVCIS:CSI16:1,2012-01-08T18:00:00Z,29.4012,-89.0355,1016.95,11111222 
WAVCIS,ioos:station:WAVCIS:CSI16:1,2012-01-08T19:00:00Z,29.4012,-89.0355,1016.38,11111222 
WAVCIS,ioos:station:WAVCIS:CSI16:1,2012-01-08T20:00:00Z,29.4012,-89.0355,1015.73,11111222 
WAVCIS,ioos:station:WAVCIS:CSI16:1,2012-01-08T21:00:00Z,29.4012,-89.0355,1015.26,11111222 
WAVCIS,ioos:station:WAVCIS:CSI16:1,2012-01-08T22:00:00Z,29.4012,-89.0355,1015.1,11111222 
WAVCIS,ioos:station:WAVCIS:CSI16:1,2012-01-08T23:00:00Z,29.4012,-89.0355,1015.12,11111222 
WAVCIS,ioos:station:WAVCIS:CSI16:1,2012-01-09T00:00:00Z,29.4012,-89.0355,1015.4,11111222 
WAVCIS,ioos:station:WAVCIS:CSI16:1,2012-01-09T01:00:00Z,29.4012,-89.0355,1015.18,11111222 
WAVCIS,ioos:station:WAVCIS:CSI16:1,2012-01-09T02:00:00Z,29.4012,-89.0355,1015.34,11111222 
WAVCIS,ioos:station:WAVCIS:CSI16:1,2012-01-09T03:00:00Z,29.4012,-89.0355,1015.53,11111222 
WAVCIS,ioos:station:WAVCIS:CSI16:1,2012-01-09T04:00:00Z,29.4012,-89.0355,1015.61,11111222 
WAVCIS,ioos:station:WAVCIS:CSI16:1,2012-01-09T05:00:00Z,29.4012,-89.0355,1015.46,11111222 
WAVCIS,ioos:station:WAVCIS:CSI16:1,2012-01-09T06:00:00Z,29.4012,-89.0355,1015.1,11111222 
WAVCIS,ioos:station:WAVCIS:CSI16:1,2012-01-09T07:00:00Z,29.4012,-89.0355,1014.8,11111222 
WAVCIS,ioos:station:WAVCIS:CSI16:1,2012-01-09T08:00:00Z,29.4012,-89.0355,1014.64,11111222 
WAVCIS,ioos:station:WAVCIS:CSI16:1,2012-01-09T09:00:00Z,29.4012,-89.0355,1014.6,11111222 
WAVCIS,ioos:station:WAVCIS:CSI16:1,2012-01-09T10:00:00Z,29.4012,-89.0355,1014.12,11111222 
WAVCIS,ioos:station:WAVCIS:CSI16:1,2012-01-09T11:00:00Z,29.4012,-89.0355,1014.28,11111222 
WAVCIS,ioos:station:WAVCIS:CSI16:1,2012-01-09T12:00:00Z,29.4012,-89.0355,1014.16,11111222 
WAVCIS,ioos:station:WAVCIS:CSI16:1,2012-01-09T13:00:00Z,29.4012,-89.0355,1013.63,11111222 
WAVCIS,ioos:station:WAVCIS:CSI16:1,2012-01-09T14:00:00Z,29.4012,-89.0355,1015.01,11111222 
WAVCIS,ioos:station:WAVCIS:CSI16:1,2012-01-09T15:00:00Z,29.4012,-89.0355,1015.59,11111222 
WAVCIS,ioos:station:WAVCIS:CSI16:1,2012-01-09T16:00:00Z,29.4012,-89.0355,1015.89,11111222 
WAVCIS,ioos:station:WAVCIS:CSI16:1,2012-01-09T17:00:00Z,29.4012,-89.0355,1015.49,11111222 
WAVCIS,ioos:station:WAVCIS:CSI16:1,2012-01-09T18:00:00Z,29.4012,-89.0355,1014.83,11111222 
WAVCIS,ioos:station:WAVCIS:CSI16:1,2012-01-09T19:00:00Z,29.4012,-89.0355,1014.0,11111222 
WAVCIS,ioos:station:WAVCIS:CSI16:1,2012-01-09T20:00:00Z,29.4012,-89.0355,1013.05,11111222 
WAVCIS,ioos:station:WAVCIS:CSI16:1,2012-01-09T21:00:00Z,29.4012,-89.0355,1012.72,11111222 
WAVCIS,ioos:station:WAVCIS:CSI16:1,2012-01-09T22:00:00Z,29.4012,-89.0355,1012.75,11111222 
WAVCIS,ioos:station:WAVCIS:CSI16:1,2012-01-09T23:00:00Z,29.4012,-89.0355,1013.12,11111222 
WAVCIS,ioos:station:WAVCIS:CSI16:1,2012-01-10T00:00:00Z,29.4012,-89.0355,1012.22,11111222 
WAVCIS,ioos:station:WAVCIS:CSI16:1,2012-01-10T01:00:00Z,29.4012,-89.0355,1011.75,11111222 
WAVCIS,ioos:station:WAVCIS:CSI16:1,2012-01-10T02:00:00Z,29.4012,-89.0355,1011.81,11111222 
WAVCIS,ioos:station:WAVCIS:CSI16:1,2012-01-10T03:00:00Z,29.4012,-89.0355,1012.18,11111222 
WAVCIS,ioos:station:WAVCIS:CSI16:1,2012-01-10T04:00:00Z,29.4012,-89.0355,1011.97,11111222 
WAVCIS,ioos:station:WAVCIS:CSI16:1,2012-01-10T05:00:00Z,29.4012,-89.0355,1011.01,11111222 
WAVCIS,ioos:station:WAVCIS:CSI16:1,2012-01-10T06:00:00Z,29.4012,-89.0355,1010.67,11111222 
WAVCIS,ioos:station:WAVCIS:CSI16:1,2012-01-10T07:00:00Z,29.4012,-89.0355,1010.22,11111222 
WAVCIS,ioos:station:WAVCIS:CSI16:1,2012-01-10T08:00:00Z,29.4012,-89.0355,1010.34,11111222 
WAVCIS,ioos:station:WAVCIS:CSI16:1,2012-01-10T09:00:00Z,29.4012,-89.0355,1009.97,11111222 
WAVCIS,ioos:station:WAVCIS:CSI16:1,2012-01-10T10:00:00Z,29.4012,-89.0355,1009.23,11111222 
WAVCIS,ioos:station:WAVCIS:CSI16:1,2012-01-10T11:00:00Z,29.4012,-89.0355,1008.91,11111222 
WAVCIS,ioos:station:WAVCIS:CSI16:1,2012-01-10T12:00:00Z,29.4012,-89.0355,1009.18,11111222 
WAVCIS,ioos:station:WAVCIS:CSI16:1,2012-01-10T13:00:00Z,29.4012,-89.0355,1008.96,11111222 
WAVCIS,ioos:station:WAVCIS:CSI16:1,2012-01-10T14:00:00Z,29.4012,-89.0355,1009.34,11111222 
WAVCIS,ioos:station:WAVCIS:CSI16:1,2012-01-10T15:00:00Z,29.4012,-89.0355,1010.16,11111222 
WAVCIS,ioos:station:WAVCIS:CSI16:1,2012-01-10T16:00:00Z,29.4012,-89.0355,1010.15,11111222 
WAVCIS,ioos:station:WAVCIS:CSI16:1,2012-01-10T17:00:00Z,29.4012,-89.0355,1008.84,11111222 
WAVCIS,ioos:station:WAVCIS:CSI16:1,2012-01-10T18:00:00Z,29.4012,-89.0355,1008.25,11111222 
WAVCIS,ioos:station:WAVCIS:CSI16:1,2012-01-10T19:00:00Z,29.4012,-89.0355,1005.969,11111222 
WAVCIS,ioos:station:WAVCIS:CSI16:1,2012-01-10T20:00:00Z,29.4012,-89.0355,1004.266,11111222 
WAVCIS,ioos:station:WAVCIS:CSI16:1,2012-01-10T21:00:00Z,29.4012,-89.0355,1003.566,11111222 
WAVCIS,ioos:station:WAVCIS:CSI16:1,2012-01-10T22:00:00Z,29.4012,-89.0355,1003.848,11111222 
WAVCIS,ioos:station:WAVCIS:CSI16:1,2012-01-10T23:00:00Z,29.4012,-89.0355,1004.186,11111222 
WAVCIS,ioos:station:WAVCIS:CSI16:1,2012-01-11T00:00:00Z,29.4012,-89.0355,1003.99,11111222 
WAVCIS,ioos:station:WAVCIS:CSI16:1,2012-01-11T01:00:00Z,29.4012,-89.0355,1003.889,11111222 
WAVCIS,ioos:station:WAVCIS:CSI16:1,2012-01-11T02:00:00Z,29.4012,-89.0355,1003.72,11111222 
WAVCIS,ioos:station:WAVCIS:CSI16:1,2012-01-11T03:00:00Z,29.4012,-89.0355,1003.078,11111222 
WAVCIS,ioos:station:WAVCIS:CSI16:1,2012-01-11T04:00:00Z,29.4012,-89.0355,1002.935,11111222 
WAVCIS,ioos:station:WAVCIS:CSI16:1,2012-01-11T05:00:00Z,29.4012,-89.0355,1002.832,11111222 
WAVCIS,ioos:station:WAVCIS:CSI16:1,2012-01-11T06:00:00Z,29.4012,-89.0355,1002.259,11111222 
WAVCIS,ioos:station:WAVCIS:CSI16:1,2012-01-11T07:00:00Z,29.4012,-89.0355,1002.055,11111222 
WAVCIS,ioos:station:WAVCIS:CSI16:1,2012-01-11T08:00:00Z,29.4012,-89.0355,1002.24,11111222 
WAVCIS,ioos:station:WAVCIS:CSI16:1,2012-01-11T09:00:00Z,29.4012,-89.0355,1002.227,11111222 
WAVCIS,ioos:station:WAVCIS:CSI16:1,2012-01-11T10:00:00Z,29.4012,-89.0355,1002.823,11111222 
WAVCIS,ioos:station:WAVCIS:CSI16:1,2012-01-11T11:00:00Z,29.4012,-89.0355,1003.238,11111222 
WAVCIS,ioos:station:WAVCIS:CSI16:1,2012-01-11T12:00:00Z,29.4012,-89.0355,1003.201,11111222 
WAVCIS,ioos:station:WAVCIS:CSI16:1,2012-01-11T13:00:00Z,29.4012,-89.0355,1003.12,11111222 
WAVCIS,ioos:station:WAVCIS:CSI16:1,2012-01-11T14:00:00Z,29.4012,-89.0355,1003.55,11111222 
WAVCIS,ioos:station:WAVCIS:CSI16:1,2012-01-11T15:00:00Z,29.4012,-89.0355,1004.743,11111222 
WAVCIS,ioos:station:WAVCIS:CSI16:1,2012-01-11T16:00:00Z,29.4012,-89.0355,1005.625,11111222 
WAVCIS,ioos:station:WAVCIS:CSI16:1,2012-01-11T17:00:00Z,29.4012,-89.0355,1005.377,11111222 
WAVCIS,ioos:station:WAVCIS:CSI16:1,2012-01-11T18:00:00Z,29.4012,-89.0355,1004.251,11111222 
WAVCIS,ioos:station:WAVCIS:CSI16:1,2012-01-11T19:00:00Z,29.4012,-89.0355,1003.168,11111222 
WAVCIS,ioos:station:WAVCIS:CSI16:1,2012-01-11T20:00:00Z,29.4012,-89.0355,1002.542,11111222 
WAVCIS,ioos:station:WAVCIS:CSI16:1,2012-01-11T21:00:00Z,29.4012,-89.0355,1002.741,11111222 